Location: Fort Wayne
(41.1310°N, 85.1290°W)
Time: 20:00:38
(UTC-04:00)

Vanguard 3 - Visible Passes

Search period start: 24 March 2017 00:00
Search period end: 03 April 2017 00:00
Orbit: 508 x 3265 km, 33.3° (Epoch: 23 March)

Date Brightness Start Highest point End Pass type
(mag) Time Alt. Az. Time Alt. Az. Time Alt. Az.
24 Mar 8.4 21:29:27 10° SW 21:37:20 31° S 21:39:05 27° SE visible
24 Mar 9.9 23:43:13 10° WSW 23:43:42 12° WSW 23:43:42 12° WSW visible
25 Mar 9.3 20:14:25 10° SW 20:23:27 27° SSE 20:29:18 10° ESE visible
25 Mar 8.4 22:28:07 10° WSW 22:34:29 36° SSW 22:34:29 36° SSW visible
26 Mar 8.5 21:12:39 10° SW 21:21:56 38° S 21:25:14 24° ESE visible
26 Mar 9.4 23:27:11 10° WSW 23:29:51 20° WSW 23:29:51 20° WSW visible
27 Mar 8.0 22:11:43 10° WSW 22:20:14 43° S 22:20:34 43° S visible
28 Mar 8.7 20:55:50 10° WSW 21:06:29 43° S 21:11:15 18° ESE visible
28 Mar 8.9 23:11:04 10° WSW 23:15:51 29° SW 23:15:51 29° SW visible
29 Mar 8.0 21:55:13 10° WSW 22:04:51 47° S 22:06:31 40° SSE visible
30 Mar 10.0 00:10:35 10° W 00:11:07 12° WSW 00:11:07 12° WSW visible
30 Mar 8.8 20:38:58 10° WSW 20:50:56 49° S 20:57:09 13° ESE visible
30 Mar 8.5 22:54:50 10° W 23:01:45 38° SW 23:01:45 38° SW visible
31 Mar 8.3 21:38:38 10° WSW 21:49:22 50° S 21:52:22 32° SE visible
31 Mar 9.7 23:54:36 10° W 23:56:58 17° WSW 23:56:58 17° WSW visible
01 Apr 9.0 20:22:04 10° WSW 20:35:18 53° S 20:42:46 10° ESE visible
01 Apr 8.3 22:38:30 10° W 22:47:28 41° SSW 22:47:34 41° SSW visible
02 Apr 8.7 21:21:59 10° W 21:33:48 52° S 21:38:09 25° SE visible
02 Apr 9.4 23:38:32 10° W 23:42:45 22° WSW 23:42:45 22° WSW visible
